NOAA NWS Hourly Roundups by Site

Regional Weather Roundup for Omaha, NE

To Select Another Site Choose from List

Select Site:  

000
ASUS43 KOAX 202110
RWRNE

WEATHER ROUNDUP FOR NEBRASKA
NATIONAL WEATHER SERVICE OMAHA NE
400 PM CDT FRI SEP 20 2019

NOTES: SATELLITE DATA IS BEING USED TO AUGMENT CLOUD COVER ABOVE
       12000 FEET.
       "FAIR" INDICATES FEW OR NO CLOUDS BELOW 12,000 FEET WITH NO
       SIGNIFICANT WEATHER AND/OR OBSTRUCTIONS TO VISIBILITY.


NEZ001>004-019>022-054>056-202200-
NEBRASKA PANHANDLE

CITY           SKY/WX    TMP DP  RH WIND       PRES   REMARKS
SCOTTSBLUFF    FAIR      88  42  20 E6        29.71F
ALLIANCE       FAIR      82  56  40 S29G35    29.74F
CHADRON        PTSUNNY   82  58  43 CALM      29.70F
GORDON         FAIR      83  59  43 S15G22    29.74F
KIMBALL        FAIR      84  44  23 SE14G21   29.77F
SIDNEY         FAIR      85  53  33 SE22G31   29.75F
$$

NEZ057>060-069>072-079>082-202200-
SOUTHWEST NEBRASKA

CITY           SKY/WX    TMP DP  RH WIND       PRES   REMARKS
NORTH PLATTE   LGT RAIN  84  62  47 S15G29    29.77F
IMPERIAL       FAIR      87  53  31 S22G35    29.76F
LEXINGTON      FAIR      83  62  49 S21G31    29.82F
MCCOOK         FAIR      88  57  34 S28G40    29.76F
OGALLALA       FAIR      84  58  40 SE24G30   29.76F
$$

NEZ005>010-023>029-035>040-094-202200-
NORTH CENTRAL NEBRASKA

CITY           SKY/WX    TMP DP  RH WIND       PRES   REMARKS
VALENTINE      FAIR      86  60  41 S24G39    29.74F
AINSWORTH      FAIR      84  62  47 S32G40    29.76F
BROKEN BOW     FAIR      84  65  52 SE25G36   29.81F
O`NEILL        FAIR      84  63  48 S22G33    29.82F
ORD            FAIR      82  64  54 S17G32    29.82F
THEDFORD       FAIR      82  62  51 SE20G37   29.78F
$$

NEZ041-046>049-061>064-073>077-083>087-202200-
SOUTH CENTRAL NEBRASKA

CITY           SKY/WX    TMP DP  RH WIND       PRES   REMARKS
GRAND ISLAND   FAIR      82  63  52 S20G28    29.87F
AURORA         PTSUNNY   84  64  51 SE20G25   29.87F
HASTINGS       PTSUNNY   82  62  50 S15G25    29.88F
HEBRON         FAIR      83  67  58 SE16G25   29.88F
HOLDREGE       FAIR      84  64  51 SE22      29.84F
KEARNEY        FAIR      83  65  54 SE21G29   29.85F
YORK           CLOUDY    81  66  61 S16G24    29.89F
$$

NEZ011>018-030>034-042>045-202200-
NORTHEAST NEBRASKA

CITY           SKY/WX    TMP DP  RH WIND       PRES   REMARKS
NORFOLK        FAIR      86  65  49 SE21G32   29.87S
ALBION         PTSUNNY   83  63  50 S22G30    29.87S
BLAIR          FAIR      83  67  57 SE15G25   29.91S
COLUMBUS       FAIR      86  65  49 S23G29    29.87F
FREMONT        PTSUNNY   85  68  56 SE18G25   29.90S
TEKAMAH        FAIR      83  69  62 S18       29.89F
WAYNE          FAIR      83  67  59 S22G29    29.88S
$$

NEZ050>053-065>068-078-088>093-202200-
SOUTHEAST NEBRASKA

CITY           SKY/WX    TMP DP  RH WIND       PRES   REMARKS
LINCOLN        PTSUNNY   86  66  51 S21G30    29.89F
OMAHA EPPLEY   FAIR      87  66  49 S25G32    29.90F
BEATRICE       CLOUDY    78  71  78 S15       29.92S
FALLS CITY     PTSUNNY   84  67  56 S24G35    29.93F
NEBRASKA CITY  PTSUNNY   84  69  60 S14G22    29.93F
PLATTSMOUTH    FAIR      85  67  55 SE12G23   29.92F
$$

NEZ044-045-051>053-067-202200-
OMAHA AREA

CITY           SKY/WX    TMP DP  RH WIND       PRES   REMARKS
OMAHA EPPLEY   FAIR      87  66  49 S25G32    29.90F
BLAIR          FAIR      83  67  57 SE15G25   29.91S
FREMONT        PTSUNNY   85  68  56 SE18G25   29.90S
MILLARD        FAIR      88  67  49 SE20G30   29.90F HX  91
OFFUTT AFB     MOSUNNY   86  64  48 SE20G25   29.95S
PLATTSMOUTH    FAIR      85  67  55 SE12G23   29.92F
WAHOO          FAIR      86  65  50 SE23G31   29.89F
$$


 

View Past Reports for Omaha, NE.

Products Courtesy of NOAA-NWS
NWS Information Parsing Script by Ken True at Saratoga Weather - Script by SE Lincoln Weather.